Saint Bonnet de Bellac- Haute Vienne - France
Donnes mto: dimanche, 01/01/2012
Date Horaire Temp. E. Hum. E. P.atmo. Pluie Vent Direction Direction Ensoleilleme Solaire P. de rose Temp au vent Rafales
01/01/2012 00:00 11,4 C 96 % 1021,0 hPa 0,0 mm 2,5 km/h (1 Bft) S-SO 202 0 min 0 W/m 10,8 C 11,4 C 6,8 km/h (2 Bft)
01/01/2012 00:05 11,4 C 96 % 1020,9 hPa 0,0 mm 4,3 km/h (1 Bft) SO 225 0 min 0 W/m 10,8 C 11,4 C 4,3 km/h (1 Bft)
01/01/2012 00:10 11,4 C 96 % 1020,9 hPa 0,0 mm 5,4 km/h (2 Bft) S-SO 202 0 min 0 W/m 10,8 C 11,4 C 8,6 km/h (2 Bft)
01/01/2012 00:15 11,5 C 96 % 1020,9 hPa 0,0 mm 1,8 km/h (1 Bft) S-SO 202 0 min 0 W/m 10,9 C 11,5 C 4,3 km/h (1 Bft)
01/01/2012 00:20 11,4 C 96 % 1020,9 hPa 0,0 mm 0,7 km/h (0 Bft) O-SO 247 0 min 0 W/m 10,8 C 11,4 C 3,2 km/h (1 Bft)
01/01/2012 00:25 11,4 C 96 % 1020,9 hPa 0,0 mm 3,2 km/h (1 Bft) SO 225 0 min 0 W/m 10,8 C 11,4 C 4,3 km/h (1 Bft)
01/01/2012 00:30 11,4 C 96 % 1020,9 hPa 0,0 mm 4,3 km/h (1 Bft) SO 225 0 min 0 W/m 10,8 C 11,4 C 6,5 km/h (2 Bft)
01/01/2012 00:35 11,4 C 96 % 1020,9 hPa 0,0 mm 6,8 km/h (2 Bft) SO 225 0 min 0 W/m 10,8 C 11,4 C 8,3 km/h (2 Bft)
01/01/2012 00:40 11,4 C 96 % 1021,0 hPa 0,0 mm 4,7 km/h (1 Bft) O-SO 247 0 min 0 W/m 10,8 C 11,4 C 7,9 km/h (2 Bft)
01/01/2012 00:45 11,4 C 96 % 1021,0 hPa 0,0 mm 8,6 km/h (2 Bft) S-SO 202 0 min 0 W/m 10,8 C 11,4 C 13,0 km/h (3 Bft)
01/01/2012 00:50 11,4 C 96 % 1021,0 hPa 0,0 mm 5,8 km/h (2 Bft) O-SO 247 0 min 0 W/m 10,8 C 11,4 C 9,7 km/h (2 Bft)
01/01/2012 00:55 11,4 C 96 % 1021,0 hPa 0,0 mm 3,2 km/h (1 Bft) S 180 0 min 0 W/m 10,8 C 11,4 C 8,3 km/h (2 Bft)
01/01/2012 01:00 11,4 C 96 % 1021,0 hPa 0,0 mm 7,6 km/h (2 Bft) SO 225 0 min 0 W/m 10,8 C 11,4 C 11,9 km/h (2 Bft)
01/01/2012 01:05 11,4 C 96 % 1020,9 hPa 0,0 mm 6,1 km/h (2 Bft) S-SO 202 0 min 0 W/m 10,8 C 11,4 C 11,2 km/h (2 Bft)
01/01/2012 01:10 11,4 C 96 % 1020,8 hPa 0,0 mm 7,6 km/h (2 Bft) SO 225 0 min 0 W/m 10,8 C 11,4 C 12,2 km/h (2 Bft)
01/01/2012 01:15 11,5 C 96 % 1020,8 hPa 0,0 mm 5,4 km/h (2 Bft) SO 225 0 min 0 W/m 10,9 C 11,5 C 7,9 km/h (2 Bft)
01/01/2012 01:20 11,4 C 96 % 1020,7 hPa 0,0 mm 6,5 km/h (2 Bft) S-SO 202 0 min 0 W/m 10,8 C 11,4 C 8,6 km/h (2 Bft)
01/01/2012 01:25 11,5 C 96 % 1020,7 hPa 0,0 mm 4,0 km/h (1 Bft) SO 225 0 min 0 W/m 10,9 C 11,5 C 6,1 km/h (2 Bft)
01/01/2012 01:30 11,4 C 96 % 1020,7 hPa 0,0 mm 3,6 km/h (1 Bft) S 180 0 min 0 W/m 10,8 C 11,4 C 7,6 km/h (2 Bft)
01/01/2012 01:35 11,5 C 96 % 1020,7 hPa 0,0 mm 7,2 km/h (2 Bft) S-SO 202 0 min 0 W/m 10,9 C 11,5 C 10,4 km/h (2 Bft)
01/01/2012 01:40 11,5 C 96 % 1020,6 hPa 0,0 mm 7,6 km/h (2 Bft) S-SO 202 0 min 0 W/m 10,9 C 11,5 C 7,6 km/h (2 Bft)
01/01/2012 01:45 11,5 C 96 % 1020,4 hPa 0,0 mm 2,5 km/h (1 Bft) O-SO 247 0 min 0 W/m 10,9 C 11,5 C 6,1 km/h (2 Bft)
01/01/2012 01:50 11,5 C 96 % 1020,5 hPa 0,0 mm 4,7 km/h (1 Bft) SO 225 0 min 0 W/m 10,9 C 11,5 C 8,6 km/h (2 Bft)
01/01/2012 01:55 11,5 C 96 % 1020,5 hPa 0,0 mm 10,1 km/h (2 Bft) S-SO 202 0 min 0 W/m 10,9 C 11,5 C 11,5 km/h (2 Bft)
01/01/2012 02:02 11,5 C 96 % 1020,5 hPa 0,0 mm 10,4 km/h (2 Bft) O-SO 247 0 min 0 W/m 10,9 C 11,5 C 12,2 km/h (2 Bft)
01/01/2012 02:05 11,6 C 96 % 1020,5 hPa 0,0 mm 8,3 km/h (2 Bft) SO 225 0 min 0 W/m 11,0 C 11,6 C 11,5 km/h (2 Bft)
01/01/2012 02:10 11,6 C 96 % 1020,5 hPa 0,1 mm 6,8 km/h (2 Bft) S-SO 202 0 min 0 W/m 11,0 C 11,6 C 14,4 km/h (3 Bft)
01/01/2012 02:15 11,6 C 96 % 1020,4 hPa 0,0 mm 5,8 km/h (2 Bft) SO 225 0 min 0 W/m 11,0 C 11,6 C 6,5 km/h (2 Bft)
01/01/2012 02:20 11,6 C 96 % 1020,4 hPa 0,0 mm 5,8 km/h (2 Bft) SO 225 0 min 0 W/m 11,0 C 11,6 C 10,8 km/h (2 Bft)
01/01/2012 02:25 11,6 C 96 % 1020,4 hPa 0,0 mm 10,4 km/h (2 Bft) SO 225 0 min 0 W/m 11,0 C 11,6 C 15,8 km/h (3 Bft)
01/01/2012 02:30 11,6 C 96 % 1020,3 hPa 0,1 mm 6,5 km/h (2 Bft) S-SO 202 0 min 0 W/m 11,0 C 11,6 C 7,9 km/h (2 Bft)
01/01/2012 02:35 11,6 C 96 % 1020,4 hPa 0,0 mm 5,4 km/h (2 Bft) SO 225 0 min 0 W/m 11,0 C 11,6 C 6,8 km/h (2 Bft)
01/01/2012 02:40 11,6 C 96 % 1020,4 hPa 0,0 mm 4,7 km/h (1 Bft) SO 225 0 min 0 W/m 11,0 C 11,6 C 7,6 km/h (2 Bft)
01/01/2012 02:45 11,6 C 96 % 1020,4 hPa 0,0 mm 7,6 km/h (2 Bft) S-SO 202 0 min 0 W/m 11,0 C 11,6 C 7,9 km/h (2 Bft)
01/01/2012 02:50 11,6 C 96 % 1020,4 hPa 0,1 mm 9,0 km/h (2 Bft) SO 225 0 min 0 W/m 11,0 C 11,6 C 12,2 km/h (2 Bft)
01/01/2012 02:55 11,6 C 96 % 1020,5 hPa 0,0 mm 4,3 km/h (1 Bft) SO 225 0 min 0 W/m 11,0 C 11,6 C 6,5 km/h (2 Bft)
01/01/2012 03:00 11,7 C 96 % 1020,4 hPa 0,0 mm 5,4 km/h (2 Bft) S-SO 202 0 min 0 W/m 11,1 C 11,7 C 10,4 km/h (2 Bft)
01/01/2012 03:05 11,7 C 96 % 1020,5 hPa 0,0 mm 4,7 km/h (1 Bft) SO 225 0 min 0 W/m 11,1 C 11,7 C 12,6 km/h (3 Bft)
01/01/2012 03:10 11,7 C 96 % 1020,5 hPa 0,0 mm 4,3 km/h (1 Bft) SO 225 0 min 0 W/m 11,1 C 11,7 C 4,3 km/h (1 Bft)
01/01/2012 03:15 11,7 C 96 % 1020,4 hPa 0,0 mm 7,2 km/h (2 Bft) SO 225 0 min 0 W/m 11,1 C 11,7 C 10,4 km/h (2 Bft)
01/01/2012 03:20 11,7 C 96 % 1020,4 hPa 0,0 mm 7,2 km/h (2 Bft) S-SO 202 0 min 0 W/m 11,1 C 11,7 C 7,9 km/h (2 Bft)
01/01/2012 03:25 11,7 C 96 % 1020,4 hPa 0,0 mm 9,7 km/h (2 Bft) S-SO 202 0 min 0 W/m 11,1 C 11,7 C 9,7 km/h (2 Bft)
01/01/2012 03:30 11,7 C 96 % 1020,4 hPa 0,0 mm 7,6 km/h (2 Bft) S-SO 202 0 min 0 W/m 11,1 C 11,7 C 7,6 km/h (2 Bft)
01/01/2012 03:35 11,8 C 96 % 1020,4 hPa 0,0 mm 6,5 km/h (2 Bft) SO 225 0 min 0 W/m 11,2 C 11,8 C 7,6 km/h (2 Bft)
01/01/2012 03:40 11,8 C 96 % 1020,4 hPa 0,0 mm 3,2 km/h (1 Bft) O-SO 247 0 min 0 W/m 11,2 C 11,8 C 3,6 km/h (1 Bft)
01/01/2012 03:45 11,8 C 96 % 1020,4 hPa 0,0 mm 3,2 km/h (1 Bft) S-SO 202 0 min 0 W/m 11,2 C 11,8 C 5,0 km/h (1 Bft)
01/01/2012 03:50 11,7 C 96 % 1020,3 hPa 0,0 mm 3,6 km/h (1 Bft) S-SO 202 0 min 0 W/m 11,1 C 11,7 C 3,6 km/h (1 Bft)
01/01/2012 03:55 11,8 C 96 % 1020,3 hPa 0,0 mm 8,3 km/h (2 Bft) SO 225 0 min 0 W/m 11,2 C 11,8 C 13,3 km/h (3 Bft)
01/01/2012 04:00 11,8 C 96 % 1020,3 hPa 0,0 mm 6,5 km/h (2 Bft) SO 225 0 min 0 W/m 11,2 C 11,8 C 7,2 km/h (2 Bft)
01/01/2012 04:05 11,8 C 96 % 1020,3 hPa 0,0 mm 5,8 km/h (2 Bft) SO 225 0 min 0 W/m 11,2 C 11,8 C 10,1 km/h (2 Bft)
01/01/2012 04:10 11,8 C 96 % 1020,3 hPa 0,1 mm 2,9 km/h (1 Bft) SO 225 0 min 0 W/m 11,2 C 11,8 C 4,3 km/h (1 Bft)
01/01/2012 04:15 11,8 C 96 % 1020,3 hPa 0,0 mm 4,3 km/h (1 Bft) SO 225 0 min 0 W/m 11,2 C 11,8 C 4,3 km/h (1 Bft)
01/01/2012 04:20 11,8 C 96 % 1020,3 hPa 0,0 mm 4,7 km/h (1 Bft) S-SO 202 0 min 0 W/m 11,2 C 11,8 C 4,7 km/h (1 Bft)
01/01/2012 04:25 11,8 C 96 % 1020,2 hPa 0,0 mm 6,1 km/h (2 Bft) SO 225 0 min 0 W/m 11,2 C 11,8 C 8,6 km/h (2 Bft)
01/01/2012 04:30 11,8 C 96 % 1020,2 hPa 0,0 mm 1,1 km/h (1 Bft) SO 225 0 min 0 W/m 11,2 C 11,8 C 3,6 km/h (1 Bft)
01/01/2012 04:35 11,8 C 96 % 1020,2 hPa 0,0 mm 5,0 km/h (1 Bft) S-SO 202 0 min 0 W/m 11,2 C 11,8 C 6,8 km/h (2 Bft)
01/01/2012 04:40 11,8 C 96 % 1020,1 hPa 0,0 mm 6,5 km/h (2 Bft) SO 225 0 min 0 W/m 11,2 C 11,8 C 10,8 km/h (2 Bft)
01/01/2012 04:45 11,8 C 96 % 1020,1 hPa 0,1 mm 2,9 km/h (1 Bft) SO 225 0 min 0 W/m 11,2 C 11,8 C 2,9 km/h (1 Bft)
01/01/2012 04:50 11,8 C 96 % 1020,1 hPa 0,0 mm 10,1 km/h (2 Bft) SO 225 0 min 0 W/m 11,2 C 11,8 C 12,2 km/h (2 Bft)
01/01/2012 04:55 11,8 C 96 % 1020,2 hPa 0,0 mm 3,6 km/h (1 Bft) S-SO 202 0 min 0 W/m 11,2 C 11,8 C 6,8 km/h (2 Bft)
01/01/2012 05:00 11,8 C 96 % 1020,2 hPa 0,0 mm 0,4 km/h (0 Bft) O-SO 247 0 min 0 W/m 11,2 C 11,8 C 3,6 km/h (1 Bft)
01/01/2012 05:05 11,8 C 96 % 1020,1 hPa 0,0 mm 4,3 km/h (1 Bft) SO 225 0 min 0 W/m 11,2 C 11,8 C 6,1 km/h (2 Bft)
01/01/2012 05:10 11,8 C 96 % 1020,1 hPa 0,0 mm 7,6 km/h (2 Bft) SO 225 0 min 0 W/m 11,2 C 11,8 C 8,6 km/h (2 Bft)
01/01/2012 05:15 11,8 C 96 % 1020,1 hPa 0,0 mm 5,8 km/h (2 Bft) SO 225 0 min 0 W/m 11,2 C 11,8 C 6,8 km/h (2 Bft)
01/01/2012 05:20 11,8 C 96 % 1020,1 hPa 0,0 mm 4,7 km/h (1 Bft) S-SO 202 0 min 0 W/m 11,2 C 11,8 C 11,5 km/h (2 Bft)
01/01/2012 05:25 11,8 C 96 % 1020,3 hPa 0,0 mm 2,2 km/h (1 Bft) S-SO 202 0 min 0 W/m 11,2 C 11,8 C 3,2 km/h (1 Bft)
01/01/2012 05:30 11,8 C 96 % 1020,2 hPa 0,0 mm 4,0 km/h (1 Bft) S-SO 202 0 min 0 W/m 11,2 C 11,8 C 7,2 km/h (2 Bft)
01/01/2012 05:35 11,8 C 96 % 1020,2 hPa 0,0 mm 2,9 km/h (1 Bft) S-SO 202 0 min 0 W/m 11,2 C 11,8 C 4,3 km/h (1 Bft)
01/01/2012 05:40 11,8 C 96 % 1020,2 hPa 0,0 mm 3,2 km/h (1 Bft) SO 225 0 min 0 W/m 11,2 C 11,8 C 7,6 km/h (2 Bft)
01/01/2012 05:45 11,8 C 96 % 1020,2 hPa 0,1 mm 4,0 km/h (1 Bft) SO 225 0 min 0 W/m 11,2 C 11,8 C 7,2 km/h (2 Bft)
01/01/2012 05:50 11,8 C 96 % 1020,2 hPa 0,0 mm 4,3 km/h (1 Bft) O-SO 247 0 min 0 W/m 11,2 C 11,8 C 7,2 km/h (2 Bft)
01/01/2012 05:55 11,8 C 96 % 1020,2 hPa 0,0 mm 6,1 km/h (2 Bft) SO 225 0 min 0 W/m 11,2 C 11,8 C 9,7 km/h (2 Bft)
01/01/2012 06:00 11,8 C 96 % 1020,2 hPa 0,0 mm 6,8 km/h (2 Bft) O-SO 247 0 min 0 W/m 11,2 C 11,8 C 9,4 km/h (2 Bft)
01/01/2012 06:05 11,7 C 96 % 1020,2 hPa 0,0 mm 2,2 km/h (1 Bft) SO 225 0 min 0 W/m 11,1 C 11,7 C 2,2 km/h (1 Bft)
01/01/2012 06:10 11,7 C 96 % 1020,2 hPa 0,0 mm 6,5 km/h (2 Bft) SO 225 0 min 0 W/m 11,1 C 11,7 C 6,5 km/h (2 Bft)
01/01/2012 06:15 11,7 C 96 % 1020,1 hPa 0,0 mm 6,1 km/h (2 Bft) O 270 0 min 0 W/m 11,1 C 11,7 C 8,6 km/h (2 Bft)
01/01/2012 06:20 11,7 C 96 % 1020,1 hPa 0,0 mm 7,6 km/h (2 Bft) O-SO 247 0 min 0 W/m 11,1 C 11,7 C 11,9 km/h (2 Bft)
01/01/2012 06:25 11,7 C 96 % 1020,1 hPa 0,0 mm 7,6 km/h (2 Bft) N 360 0 min 0 W/m 11,1 C 11,7 C 7,6 km/h (2 Bft)
01/01/2012 06:30 11,7 C 96 % 1020,0 hPa 0,0 mm 4,7 km/h (1 Bft) S-SO 202 0 min 0 W/m 11,1 C 11,7 C 6,5 km/h (2 Bft)
01/01/2012 06:35 11,7 C 96 % 1020,1 hPa 0,0 mm 6,8 km/h (2 Bft) SO 225 0 min 0 W/m 11,1 C 11,7 C 6,8 km/h (2 Bft)
01/01/2012 06:40 11,7 C 96 % 1020,2 hPa 0,0 mm 6,1 km/h (2 Bft) SO 225 0 min 0 W/m 11,1 C 11,7 C 6,1 km/h (2 Bft)
01/01/2012 06:45 11,6 C 96 % 1020,3 hPa 0,0 mm 5,0 km/h (1 Bft) O-SO 247 0 min 0 W/m 11,0 C 11,6 C 14,0 km/h (3 Bft)
01/01/2012 06:50 11,7 C 96 % 1020,2 hPa 0,0 mm 6,8 km/h (2 Bft) S-SO 202 0 min 0 W/m 11,1 C 11,7 C 9,7 km/h (2 Bft)
01/01/2012 06:55 11,6 C 96 % 1020,3 hPa 0,0 mm 6,8 km/h (2 Bft) SO 225 0 min 0 W/m 11,0 C 11,6 C 7,9 km/h (2 Bft)
01/01/2012 07:00 11,6 C 96 % 1020,4 hPa 0,1 mm 4,7 km/h (1 Bft) SO 225 0 min 0 W/m 11,0 C 11,6 C 8,3 km/h (2 Bft)
01/01/2012 07:05 11,6 C 96 % 1020,3 hPa 0,0 mm 10,4 km/h (2 Bft) SO 225 0 min 0 W/m 11,0 C 11,6 C 16,2 km/h (3 Bft)
01/01/2012 07:10 11,6 C 96 % 1020,3 hPa 0,0 mm 6,5 km/h (2 Bft) SO 225 0 min 0 W/m 11,0 C 11,6 C 12,6 km/h (3 Bft)
01/01/2012 07:15 11,6 C 96 % 1020,3 hPa 0,0 mm 7,2 km/h (2 Bft) SO 225 0 min 0 W/m 11,0 C 11,6 C 7,2 km/h (2 Bft)
01/01/2012 07:20 11,6 C 96 % 1020,3 hPa 0,0 mm 7,2 km/h (2 Bft) SO 225 0 min 0 W/m 11,0 C 11,6 C 7,6 km/h (2 Bft)
01/01/2012 07:25 11,6 C 96 % 1020,3 hPa 0,0 mm 5,8 km/h (2 Bft) SO 225 0 min 0 W/m 11,0 C 11,6 C 9,7 km/h (2 Bft)
01/01/2012 07:30 11,5 C 96 % 1020,3 hPa 0,0 mm 6,5 km/h (2 Bft) SO 225 0 min 0 W/m 10,9 C 11,5 C 12,2 km/h (2 Bft)
01/01/2012 07:35 11,5 C 96 % 1020,3 hPa 0,0 mm 9,4 km/h (2 Bft) S-SO 202 0 min 0 W/m 10,9 C 11,5 C 12,6 km/h (3 Bft)
01/01/2012 07:40 11,5 C 96 % 1020,2 hPa 0,0 mm 6,1 km/h (2 Bft) SO 225 0 min 0 W/m 10,9 C 11,5 C 9,7 km/h (2 Bft)
01/01/2012 07:45 11,5 C 96 % 1020,1 hPa 0,0 mm 5,8 km/h (2 Bft) SO 225 0 min 0 W/m 10,9 C 11,5 C 10,8 km/h (2 Bft)
01/01/2012 07:50 11,5 C 96 % 1020,1 hPa 0,0 mm 6,1 km/h (2 Bft) S-SO 202 0 min 0 W/m 10,9 C 11,5 C 6,1 km/h (2 Bft)
01/01/2012 07:55 11,4 C 96 % 1020,0 hPa 0,0 mm 4,7 km/h (1 Bft) SO 225 0 min 0 W/m 10,8 C 11,4 C 10,4 km/h (2 Bft)
01/01/2012 08:00 11,5 C 96 % 1020,0 hPa 0,0 mm 9,7 km/h (2 Bft) SO 225 0 min 0 W/m 10,9 C 11,5 C 16,6 km/h (3 Bft)
01/01/2012 08:05 11,5 C 96 % 1019,9 hPa 0,0 mm 11,2 km/h (2 Bft) SO 225 0 min 0 W/m 10,9 C 11,5 C 13,3 km/h (3 Bft)
01/01/2012 08:10 11,5 C 96 % 1019,9 hPa 0,0 mm 4,7 km/h (1 Bft) S-SO 202 0 min 0 W/m 10,9 C 11,5 C 13,3 km/h (3 Bft)
01/01/2012 08:15 11,5 C 96 % 1019,9 hPa 0,0 mm 4,7 km/h (1 Bft) S-SO 202 0 min 0 W/m 10,9 C 11,5 C 13,3 km/h (3 Bft)
01/01/2012 08:20 11,5 C 96 % 1019,9 hPa 0,0 mm 4,7 km/h (1 Bft) S-SO 202 0 min 0 W/m 10,9 C 11,5 C 13,3 km/h (3 Bft)
01/01/2012 08:25 11,4 C 96 % 1019,9 hPa 0,0 mm 6,8 km/h (2 Bft) SO 225 0 min 0 W/m 10,8 C 11,4 C 11,2 km/h (2 Bft)
01/01/2012 08:30 11,4 C 96 % 1019,9 hPa 0,0 mm 9,4 km/h (2 Bft) O-SO 247 0 min 0 W/m 10,8 C 11,4 C 11,5 km/h (2 Bft)
01/01/2012 08:35 11,4 C 96 % 1020,0 hPa 0,0 mm 7,2 km/h (2 Bft) SO 225 0 min 0 W/m 10,8 C 11,4 C 9,7 km/h (2 Bft)
01/01/2012 08:40 11,4 C 96 % 1019,9 hPa 0,0 mm 8,6 km/h (2 Bft) SO 225 0 min 0 W/m 10,8 C 11,4 C 8,6 km/h (2 Bft)
01/01/2012 08:45 11,4 C 96 % 1020,0 hPa 0,0 mm 13,3 km/h (3 Bft) SO 225 0 min 0 W/m 10,8 C 11,4 C 20,9 km/h (4 Bft)
01/01/2012 08:50 11,4 C 96 % 1020,0 hPa 0,0 mm 10,8 km/h (2 Bft) SO 225 0 min 0 W/m 10,8 C 11,4 C 19,1 km/h (3 Bft)
01/01/2012 08:55 11,4 C 96 % 1020,0 hPa 0,0 mm 7,2 km/h (2 Bft) S-SO 202 0 min 0 W/m 10,8 C 11,4 C 7,2 km/h (2 Bft)
01/01/2012 09:00 11,4 C 96 % 1020,0 hPa 0,0 mm 7,6 km/h (2 Bft) SO 225 0 min 0 W/m 10,8 C 11,4 C 12,6 km/h (3 Bft)
01/01/2012 09:05 11,4 C 96 % 1020,0 hPa 0,0 mm 13,0 km/h (3 Bft) SO 225 0 min 0 W/m 10,8 C 11,4 C 16,6 km/h (3 Bft)
01/01/2012 09:10 11,4 C 96 % 1020,1 hPa 0,0 mm 12,2 km/h (2 Bft) S-SO 202 0 min 0 W/m 10,8 C 11,4 C 16,2 km/h (3 Bft)
01/01/2012 09:15 11,4 C 96 % 1020,1 hPa 0,0 mm 10,4 km/h (2 Bft) SO 225 0 min 0 W/m 10,8 C 11,4 C 13,3 km/h (3 Bft)
01/01/2012 09:20 11,5 C 96 % 1020,0 hPa 0,0 mm 11,5 km/h (2 Bft) O-SO 247 0 min 0 W/m 10,9 C 11,5 C 17,3 km/h (3 Bft)
01/01/2012 09:25 11,5 C 96 % 1020,0 hPa 0,1 mm 8,6 km/h (2 Bft) S-SO 202 0 min 0 W/m 10,9 C 11,5 C 10,1 km/h (2 Bft)
01/01/2012 09:30 11,5 C 96 % 1020,1 hPa 0,0 mm 13,0 km/h (3 Bft) O-SO 247 0 min 0 W/m 10,9 C 11,5 C 16,9 km/h (3 Bft)
01/01/2012 09:35 11,5 C 96 % 1020,1 hPa 0,0 mm 10,8 km/h (2 Bft) O 270 0 min 0 W/m 10,9 C 11,5 C 14,0 km/h (3 Bft)
01/01/2012 09:40 11,5 C 96 % 1020,1 hPa 0,0 mm 10,1 km/h (2 Bft) O 270 0 min 0 W/m 10,9 C 11,5 C 17,3 km/h (3 Bft)
01/01/2012 09:45 11,5 C 96 % 1020,0 hPa 0,0 mm 10,4 km/h (2 Bft) S-SO 202 0 min 0 W/m 10,9 C 11,5 C 10,4 km/h (2 Bft)
01/01/2012 09:50 11,6 C 96 % 1020,1 hPa 0,0 mm 9,0 km/h (2 Bft) SO 225 0 min 0 W/m 11,0 C 11,6 C 14,0 km/h (3 Bft)
01/01/2012 09:55 11,5 C 96 % 1020,1 hPa 0,0 mm 13,0 km/h (3 Bft) S-SO 202 0 min 0 W/m 10,9 C 11,5 C 19,1 km/h (3 Bft)
01/01/2012 10:00 11,6 C 96 % 1020,1 hPa 0,0 mm 10,1 km/h (2 Bft) S-SO 202 0 min 0 W/m 11,0 C 11,6 C 15,1 km/h (3 Bft)
01/01/2012 10:05 11,6 C 96 % 1020,0 hPa 0,0 mm 7,9 km/h (2 Bft) SO 225 0 min 0 W/m 11,0 C 11,6 C 12,6 km/h (3 Bft)
01/01/2012 10:10 11,6 C 96 % 1020,0 hPa 0,1 mm 7,2 km/h (2 Bft) SO 225 0 min 0 W/m 11,0 C 11,6 C 10,4 km/h (2 Bft)
01/01/2012 10:15 11,6 C 96 % 1020,0 hPa 0,0 mm 6,5 km/h (2 Bft) S-SO 202 0 min 0 W/m 11,0 C 11,6 C 10,4 km/h (2 Bft)
01/01/2012 10:20 11,7 C 96 % 1020,0 hPa 0,0 mm 10,1 km/h (2 Bft) SO 225 0 min 0 W/m 11,1 C 11,7 C 14,8 km/h (3 Bft)
01/01/2012 10:25 11,8 C 96 % 1019,8 hPa 0,0 mm 11,2 km/h (2 Bft) SO 225 0 min 0 W/m 11,2 C 11,8 C 11,2 km/h (2 Bft)
01/01/2012 10:30 11,8 C 96 % 1019,8 hPa 0,0 mm 10,8 km/h (2 Bft) SO 225 0 min 0 W/m 11,2 C 11,8 C 11,9 km/h (2 Bft)
01/01/2012 10:35 11,8 C 96 % 1019,8 hPa 0,0 mm 7,9 km/h (2 Bft) S-SO 202 0 min 0 W/m 11,2 C 11,8 C 7,9 km/h (2 Bft)
01/01/2012 10:40 11,9 C 96 % 1019,9 hPa 0,0 mm 7,2 km/h (2 Bft) SO 225 0 min 0 W/m 11,3 C 11,9 C 11,5 km/h (2 Bft)
01/01/2012 10:45 11,9 C 96 % 1019,9 hPa 0,0 mm 11,2 km/h (2 Bft) O-SO 247 0 min 0 W/m 11,3 C 11,9 C 15,5 km/h (3 Bft)
01/01/2012 10:50 11,9 C 96 % 1019,9 hPa 0,0 mm 8,6 km/h (2 Bft) SO 225 0 min 0 W/m 11,3 C 11,9 C 12,2 km/h (2 Bft)
01/01/2012 10:55 11,9 C 96 % 1019,8 hPa 0,0 mm 6,1 km/h (2 Bft) SO 225 0 min 0 W/m 11,3 C 11,9 C 8,3 km/h (2 Bft)
01/01/2012 11:00 12,0 C 96 % 1019,8 hPa 0,0 mm 9,4 km/h (2 Bft) SO 225 0 min 0 W/m 11,4 C 12,0 C 13,0 km/h (3 Bft)
01/01/2012 11:05 12,0 C 96 % 1019,8 hPa 0,0 mm 7,2 km/h (2 Bft) S-SO 202 0 min 0 W/m 11,4 C 12,0 C 9,4 km/h (2 Bft)
01/01/2012 11:10 12,0 C 96 % 1019,9 hPa 0,0 mm 13,0 km/h (3 Bft) SO 225 0 min 0 W/m 11,4 C 12,0 C 19,8 km/h (3 Bft)
01/01/2012 11:15 12,1 C 96 % 1019,9 hPa 0,0 mm 11,2 km/h (2 Bft) S-SO 202 0 min 0 W/m 11,5 C 12,1 C 11,9 km/h (2 Bft)
01/01/2012 11:20 12,0 C 96 % 1019,8 hPa 0,0 mm 4,7 km/h (1 Bft) SO 225 0 min 0 W/m 11,4 C 12,0 C 6,8 km/h (2 Bft)
01/01/2012 11:25 12,0 C 96 % 1019,9 hPa 0,0 mm 8,3 km/h (2 Bft) SO 225 0 min 0 W/m 11,4 C 12,0 C 19,1 km/h (3 Bft)
01/01/2012 11:30 11,9 C 96 % 1019,8 hPa 0,0 mm 9,0 km/h (2 Bft) SO 225 0 min 0 W/m 11,3 C 11,9 C 16,9 km/h (3 Bft)
01/01/2012 11:35 12,0 C 96 % 1019,7 hPa 0,0 mm 11,9 km/h (2 Bft) SO 225 0 min 0 W/m 11,4 C 12,0 C 11,9 km/h (2 Bft)
01/01/2012 11:40 12,0 C 96 % 1019,7 hPa 0,0 mm 11,9 km/h (2 Bft) SO 225 0 min 0 W/m 11,4 C 12,0 C 15,5 km/h (3 Bft)
01/01/2012 11:45 12,0 C 96 % 1019,6 hPa 0,0 mm 13,7 km/h (3 Bft) S-SO 202 0 min 0 W/m 11,4 C 12,0 C 13,7 km/h (3 Bft)
01/01/2012 11:50 12,0 C 96 % 1019,5 hPa 0,0 mm 7,6 km/h (2 Bft) SO 225 0 min 0 W/m 11,4 C 12,0 C 14,4 km/h (3 Bft)
01/01/2012 11:55 12,0 C 96 % 1019,4 hPa 0,0 mm 7,6 km/h (2 Bft) SO 225 0 min 0 W/m 11,4 C 12,0 C 14,4 km/h (3 Bft)
01/01/2012 12:00 12,0 C 96 % 1019,3 hPa 0,1 mm 7,6 km/h (2 Bft) SO 225 0 min 0 W/m 11,4 C 12,0 C 14,4 km/h (3 Bft)
01/01/2012 12:05 12,0 C 96 % 1019,3 hPa 0,0 mm 7,6 km/h (2 Bft) N 360 0 min 0 W/m 11,4 C 12,0 C 7,6 km/h (2 Bft)
01/01/2012 12:10 12,0 C 96 % 1019,2 hPa 0,0 mm 7,6 km/h (2 Bft) N 360 0 min 0 W/m 11,4 C 12,0 C 7,6 km/h (2 Bft)
01/01/2012 12:15 12,0 C 96 % 1019,1 hPa 0,0 mm 7,6 km/h (2 Bft) N 360 0 min 0 W/m 11,4 C 12,0 C 7,6 km/h (2 Bft)
01/01/2012 12:20 12,0 C 96 % 1019,1 hPa 0,0 mm 7,6 km/h (2 Bft) N 360 0 min 0 W/m 11,4 C 12,0 C 7,6 km/h (2 Bft)
01/01/2012 12:25 12,0 C 96 % 1019,1 hPa 0,0 mm 7,6 km/h (2 Bft) N 360 0 min 0 W/m 11,4 C 12,0 C 7,6 km/h (2 Bft)
01/01/2012 12:30 12,0 C 96 % 1018,9 hPa 0,1 mm 7,6 km/h (2 Bft) N 360 0 min 0 W/m 11,4 C 12,0 C 7,6 km/h (2 Bft)
01/01/2012 12:35 12,0 C 96 % 1018,9 hPa 0,0 mm 7,6 km/h (2 Bft) N 360 0 min 0 W/m 11,4 C 12,0 C 7,6 km/h (2 Bft)
01/01/2012 12:40 12,0 C 96 % 1018,8 hPa 0,0 mm 7,6 km/h (2 Bft) N 360 0 min 0 W/m 11,4 C 12,0 C 7,6 km/h (2 Bft)
01/01/2012 12:45 12,0 C 96 % 1018,7 hPa 0,0 mm 7,6 km/h (2 Bft) N 360 0 min 0 W/m 11,4 C 12,0 C 7,6 km/h (2 Bft)
01/01/2012 12:50 12,0 C 96 % 1018,6 hPa 0,0 mm 7,6 km/h (2 Bft) N 360 0 min 0 W/m 11,4 C 12,0 C 7,6 km/h (2 Bft)
01/01/2012 12:55 12,0 C 96 % 1018,4 hPa 0,0 mm 7,6 km/h (2 Bft) N 360 0 min 0 W/m 11,4 C 12,0 C 7,6 km/h (2 Bft)
01/01/2012 13:00 12,0 C 96 % 1018,4 hPa 0,0 mm 7,6 km/h (2 Bft) N 360 0 min 0 W/m 11,4 C 12,0 C 7,6 km/h (2 Bft)
01/01/2012 13:05 12,0 C 96 % 1018,3 hPa 0,0 mm 7,6 km/h (2 Bft) N 360 0 min 0 W/m 11,4 C 12,0 C 7,6 km/h (2 Bft)
01/01/2012 13:10 12,1 C 96 % 1018,3 hPa 0,0 mm 7,2 km/h (2 Bft) S-SO 202 0 min 0 W/m 11,5 C 12,1 C 10,4 km/h (2 Bft)
01/01/2012 13:15 12,1 C 96 % 1018,2 hPa 0,0 mm 9,0 km/h (2 Bft) SO 225 0 min 0 W/m 11,5 C 12,1 C 14,0 km/h (3 Bft)
01/01/2012 13:20 12,1 C 96 % 1018,1 hPa 0,0 mm 9,7 km/h (2 Bft) SO 225 0 min 0 W/m 11,5 C 12,1 C 13,7 km/h (3 Bft)
01/01/2012 13:25 12,2 C 96 % 1018,0 hPa 0,0 mm 8,6 km/h (2 Bft) SO 225 0 min 0 W/m 11,6 C 12,2 C 13,0 km/h (3 Bft)
01/01/2012 13:30 12,2 C 96 % 1017,9 hPa 0,0 mm 9,7 km/h (2 Bft) S-SO 202 0 min 0 W/m 11,6 C 12,2 C 16,6 km/h (3 Bft)
01/01/2012 13:35 12,1 C 96 % 1017,8 hPa 0,0 mm 9,4 km/h (2 Bft) O-SO 247 0 min 0 W/m 11,5 C 12,1 C 17,3 km/h (3 Bft)
01/01/2012 13:40 12,2 C 96 % 1017,7 hPa 0,0 mm 8,3 km/h (2 Bft) O-SO 247 0 min 0 W/m 11,6 C 12,2 C 9,4 km/h (2 Bft)
01/01/2012 13:45 12,2 C 96 % 1017,7 hPa 0,0 mm 7,2 km/h (2 Bft) SO 225 0 min 0 W/m 11,6 C 12,2 C 7,2 km/h (2 Bft)
01/01/2012 13:50 12,2 C 96 % 1017,6 hPa 0,0 mm 7,6 km/h (2 Bft) S-SO 202 0 min 0 W/m 11,6 C 12,2 C 13,0 km/h (3 Bft)
01/01/2012 13:55 12,2 C 96 % 1017,6 hPa 0,0 mm 5,0 km/h (1 Bft) SO 225 0 min 0 W/m 11,6 C 12,2 C 8,3 km/h (2 Bft)
01/01/2012 14:00 12,2 C 96 % 1017,5 hPa 0,0 mm 8,3 km/h (2 Bft) SO 225 0 min 0 W/m 11,6 C 12,2 C 8,6 km/h (2 Bft)
01/01/2012 14:05 12,1 C 96 % 1017,4 hPa 0,0 mm 8,3 km/h (2 Bft) S-SO 202 0 min 0 W/m 11,5 C 12,1 C 16,9 km/h (3 Bft)
01/01/2012 14:10 12,1 C 96 % 1017,4 hPa 0,0 mm 12,6 km/h (3 Bft) SO 225 0 min 0 W/m 11,5 C 12,1 C 19,4 km/h (3 Bft)
01/01/2012 14:15 12,1 C 96 % 1017,4 hPa 0,0 mm 9,7 km/h (2 Bft) SO 225 0 min 0 W/m 11,5 C 12,1 C 14,4 km/h (3 Bft)
01/01/2012 14:20 12,1 C 95 % 1017,4 hPa 0,0 mm 12,2 km/h (2 Bft) SO 225 0 min 0 W/m 11,3 C 12,1 C 17,3 km/h (3 Bft)
01/01/2012 14:25 12,1 C 95 % 1017,4 hPa 0,0 mm 10,8 km/h (2 Bft) O-SO 247 0 min 0 W/m 11,3 C 12,1 C 16,6 km/h (3 Bft)
01/01/2012 14:30 12,1 C 95 % 1017,3 hPa 0,0 mm 4,7 km/h (1 Bft) S 180 0 min 0 W/m 11,3 C 12,1 C 7,9 km/h (2 Bft)
01/01/2012 14:35 12,1 C 95 % 1017,3 hPa 0,0 mm 11,5 km/h (2 Bft) S-SO 202 0 min 0 W/m 11,3 C 12,1 C 16,9 km/h (3 Bft)
01/01/2012 14:40 11,9 C 95 % 1017,3 hPa 0,0 mm 12,2 km/h (2 Bft) SO 225 0 min 0 W/m 11,1 C 11,9 C 23,0 km/h (4 Bft)
01/01/2012 14:45 11,9 C 95 % 1017,2 hPa 0,0 mm 13,7 km/h (3 Bft) O-SO 247 0 min 0 W/m 11,1 C 11,9 C 13,7 km/h (3 Bft)
01/01/2012 14:50 11,9 C 95 % 1017,3 hPa 0,0 mm 8,3 km/h (2 Bft) S-SO 202 0 min 0 W/m 11,1 C 11,9 C 15,5 km/h (3 Bft)
01/01/2012 14:55 11,9 C 95 % 1017,2 hPa 0,0 mm 8,3 km/h (2 Bft) SO 225 0 min 0 W/m 11,1 C 11,9 C 13,3 km/h (3 Bft)
01/01/2012 15:00 11,8 C 95 % 1017,2 hPa 0,0 mm 11,2 km/h (2 Bft) S-SO 202 0 min 0 W/m 11,0 C 11,8 C 11,2 km/h (2 Bft)
01/01/2012 15:05 11,8 C 95 % 1017,2 hPa 0,0 mm 7,2 km/h (2 Bft) SO 225 0 min 0 W/m 11,0 C 11,8 C 15,1 km/h (3 Bft)
01/01/2012 15:10 11,8 C 95 % 1017,2 hPa 0,0 mm 7,9 km/h (2 Bft) O-SO 247 0 min 0 W/m 11,0 C 11,8 C 11,9 km/h (2 Bft)
01/01/2012 15:15 11,8 C 95 % 1017,1 hPa 0,0 mm 11,2 km/h (2 Bft) SO 225 0 min 0 W/m 11,0 C 11,8 C 13,3 km/h (3 Bft)
01/01/2012 15:20 11,8 C 95 % 1017,2 hPa 0,0 mm 7,9 km/h (2 Bft) SO 225 0 min 0 W/m 11,0 C 11,8 C 11,9 km/h (2 Bft)
01/01/2012 15:25 11,7 C 95 % 1017,3 hPa 0,0 mm 9,4 km/h (2 Bft) O-SO 247 0 min 0 W/m 10,9 C 11,7 C 16,6 km/h (3 Bft)
01/01/2012 15:30 11,7 C 95 % 1017,3 hPa 0,0 mm 5,8 km/h (2 Bft) SO 225 0 min 0 W/m 10,9 C 11,7 C 11,2 km/h (2 Bft)
01/01/2012 15:35 11,7 C 95 % 1017,2 hPa 0,0 mm 5,8 km/h (2 Bft) SO 225 0 min 0 W/m 10,9 C 11,7 C 6,8 km/h (2 Bft)
01/01/2012 15:40 11,6 C 95 % 1017,2 hPa 0,1 mm 11,9 km/h (2 Bft) SO 225 0 min 0 W/m 10,8 C 11,6 C 11,9 km/h (2 Bft)
01/01/2012 15:45 11,6 C 95 % 1017,2 hPa 0,0 mm 8,3 km/h (2 Bft) SO 225 0 min 0 W/m 10,8 C 11,6 C 10,8 km/h (2 Bft)
01/01/2012 15:50 11,6 C 95 % 1017,2 hPa 0,0 mm 9,4 km/h (2 Bft) S-SO 202 0 min 0 W/m 10,8 C 11,6 C 13,0 km/h (3 Bft)
01/01/2012 15:55 11,6 C 95 % 1017,1 hPa 0,0 mm 5,0 km/h (1 Bft) S-SO 202 0 min 0 W/m 10,8 C 11,6 C 8,6 km/h (2 Bft)
01/01/2012 16:00 11,6 C 95 % 1017,1 hPa 0,0 mm 7,9 km/h (2 Bft) SO 225 0 min 0 W/m 10,8 C 11,6 C 14,0 km/h (3 Bft)
01/01/2012 16:05 11,6 C 95 % 1017,1 hPa 0,0 mm 6,5 km/h (2 Bft) S-SO 202 0 min 0 W/m 10,8 C 11,6 C 10,4 km/h (2 Bft)
01/01/2012 16:10 11,6 C 95 % 1017,0 hPa 0,0 mm 9,7 km/h (2 Bft) SO 225 0 min 0 W/m 10,8 C 11,6 C 13,7 km/h (3 Bft)
01/01/2012 16:15 11,6 C 95 % 1017,0 hPa 0,0 mm 9,0 km/h (2 Bft) S 180 0 min 0 W/m 10,8 C 11,6 C 13,3 km/h (3 Bft)
01/01/2012 16:20 11,6 C 95 % 1017,0 hPa 0,0 mm 14,4 km/h (3 Bft) SO 225 0 min 0 W/m 10,8 C 11,6 C 18,7 km/h (3 Bft)
01/01/2012 16:25 11,6 C 95 % 1016,9 hPa 0,0 mm 8,3 km/h (2 Bft) SO 225 0 min 0 W/m 10,8 C 11,6 C 11,5 km/h (2 Bft)
01/01/2012 16:30 11,6 C 95 % 1016,9 hPa 0,0 mm 7,9 km/h (2 Bft) O-SO 247 0 min 0 W/m 10,8 C 11,6 C 11,2 km/h (2 Bft)
01/01/2012 16:35 11,6 C 95 % 1017,0 hPa 0,0 mm 9,0 km/h (2 Bft) O-SO 247 0 min 0 W/m 10,8 C 11,6 C 17,6 km/h (3 Bft)
01/01/2012 16:40 11,5 C 95 % 1016,8 hPa 0,0 mm 10,1 km/h (2 Bft) S-SO 202 0 min 0 W/m 10,7 C 11,5 C 16,6 km/h (3 Bft)
01/01/2012 16:45 11,5 C 95 % 1016,8 hPa 0,0 mm 8,3 km/h (2 Bft) S-SO 202 0 min 0 W/m 10,7 C 11,5 C 12,6 km/h (3 Bft)
01/01/2012 16:50 11,5 C 95 % 1016,8 hPa 0,0 mm 10,4 km/h (2 Bft) S-SO 202 0 min 0 W/m 10,7 C 11,5 C 18,4 km/h (3 Bft)
01/01/2012 16:55 11,5 C 95 % 1016,7 hPa 0,0 mm 7,9 km/h (2 Bft) S-SO 202 0 min 0 W/m 10,7 C 11,5 C 9,7 km/h (2 Bft)
01/01/2012 17:00 11,5 C 95 % 1016,7 hPa 0,0 mm 9,0 km/h (2 Bft) SO 225 0 min 0 W/m 10,7 C 11,5 C 13,0 km/h (3 Bft)
01/01/2012 17:05 11,5 C 94 % 1016,5 hPa 0,0 mm 6,1 km/h (2 Bft) S-SO 202 0 min 0 W/m 10,6 C 11,5 C 11,5 km/h (2 Bft)
01/01/2012 17:10 11,4 C 94 % 1016,5 hPa 0,0 mm 7,6 km/h (2 Bft) S-SO 202 0 min 0 W/m 10,5 C 11,4 C 9,4 km/h (2 Bft)
01/01/2012 17:15 11,4 C 94 % 1016,5 hPa 0,0 mm 7,2 km/h (2 Bft) SO 225 0 min 0 W/m 10,5 C 11,4 C 12,6 km/h (3 Bft)
01/01/2012 17:20 11,4 C 94 % 1016,5 hPa 0,0 mm 16,9 km/h (3 Bft) S-SE 157 0 min 0 W/m 10,5 C 11,4 C 21,6 km/h (4 Bft)
01/01/2012 17:25 11,4 C 94 % 1016,6 hPa 0,0 mm 5,8 km/h (2 Bft) S-SO 202 0 min 0 W/m 10,5 C 11,4 C 7,2 km/h (2 Bft)
01/01/2012 17:30 11,4 C 94 % 1016,5 hPa 0,0 mm 10,4 km/h (2 Bft) S-SO 202 0 min 0 W/m 10,5 C 11,4 C 13,7 km/h (3 Bft)
01/01/2012 17:35 11,4 C 94 % 1016,4 hPa 0,0 mm 10,4 km/h (2 Bft) SO 225 0 min 0 W/m 10,5 C 11,4 C 16,2 km/h (3 Bft)
01/01/2012 17:40 11,4 C 94 % 1016,4 hPa 0,0 mm 6,5 km/h (2 Bft) SO 225 0 min 0 W/m 10,5 C 11,4 C 10,4 km/h (2 Bft)
01/01/2012 17:45 11,4 C 94 % 1016,4 hPa 0,0 mm 11,2 km/h (2 Bft) SO 225 0 min 0 W/m 10,5 C 11,4 C 15,5 km/h (3 Bft)
01/01/2012 17:50 11,4 C 94 % 1016,4 hPa 0,0 mm 10,1 km/h (2 Bft) S-SO 202 0 min 0 W/m 10,5 C 11,4 C 10,1 km/h (2 Bft)
01/01/2012 17:55 11,4 C 94 % 1016,4 hPa 0,0 mm 10,4 km/h (2 Bft) SO 225 0 min 0 W/m 10,5 C 11,4 C 17,6 km/h (3 Bft)
01/01/2012 18:00 11,4 C 94 % 1016,4 hPa 0,0 mm 9,7 km/h (2 Bft) SO 225 0 min 0 W/m 10,5 C 11,4 C 9,7 km/h (2 Bft)
01/01/2012 18:05 11,4 C 94 % 1016,4 hPa 0,0 mm 9,7 km/h (2 Bft) S 180 0 min 0 W/m 10,5 C 11,4 C 9,7 km/h (2 Bft)
01/01/2012 18:10 11,4 C 94 % 1016,4 hPa 0,0 mm 10,4 km/h (2 Bft) S-SO 202 0 min 0 W/m 10,5 C 11,4 C 10,8 km/h (2 Bft)
01/01/2012 18:15 11,4 C 93 % 1016,3 hPa 0,0 mm 12,6 km/h (3 Bft) S-SO 202 0 min 0 W/m 10,3 C 11,4 C 21,2 km/h (4 Bft)
01/01/2012 18:20 11,4 C 93 % 1016,3 hPa 0,0 mm 12,6 km/h (3 Bft) S-SO 202 0 min 0 W/m 10,3 C 11,4 C 12,6 km/h (3 Bft)
01/01/2012 18:25 11,4 C 93 % 1016,3 hPa 0,0 mm 10,8 km/h (2 Bft) SO 225 0 min 0 W/m 10,3 C 11,4 C 11,5 km/h (2 Bft)
01/01/2012 18:30 11,4 C 93 % 1016,2 hPa 0,0 mm 10,4 km/h (2 Bft) S-SO 202 0 min 0 W/m 10,3 C 11,4 C 16,2 km/h (3 Bft)
01/01/2012 18:35 11,4 C 93 % 1016,3 hPa 0,0 mm 9,0 km/h (2 Bft) S-SO 202 0 min 0 W/m 10,3 C 11,4 C 11,9 km/h (2 Bft)
01/01/2012 18:40 11,4 C 93 % 1016,2 hPa 0,0 mm 10,4 km/h (2 Bft) S-SO 202 0 min 0 W/m 10,3 C 11,4 C 20,5 km/h (4 Bft)
01/01/2012 18:45 11,4 C 93 % 1016,1 hPa 0,0 mm 9,4 km/h (2 Bft) S-SO 202 0 min 0 W/m 10,3 C 11,4 C 14,0 km/h (3 Bft)
01/01/2012 18:50 11,4 C 93 % 1016,1 hPa 0,0 mm 11,9 km/h (2 Bft) S-SO 202 0 min 0 W/m 10,3 C 11,4 C 11,9 km/h (2 Bft)
01/01/2012 18:55 11,4 C 93 % 1016,0 hPa 0,0 mm 10,8 km/h (2 Bft) S-SO 202 0 min 0 W/m 10,3 C 11,4 C 10,8 km/h (2 Bft)
01/01/2012 19:05 11,4 C 93 % 1015,9 hPa 0,0 mm 9,7 km/h (2 Bft) SO 225 0 min 0 W/m 10,3 C 11,4 C 13,0 km/h (3 Bft)
01/01/2012 19:10 11,3 C 93 % 1015,8 hPa 0,0 mm 8,6 km/h (2 Bft) SO 225 0 min 0 W/m 10,2 C 11,3 C 12,2 km/h (2 Bft)
01/01/2012 19:15 11,3 C 93 % 1015,7 hPa 0,0 mm 8,6 km/h (2 Bft) S-SO 202 0 min 0 W/m 10,2 C 11,3 C 12,6 km/h (3 Bft)
01/01/2012 19:20 11,2 C 93 % 1015,7 hPa 0,0 mm 10,8 km/h (2 Bft) S 180 0 min 0 W/m 10,1 C 11,2 C 18,0 km/h (3 Bft)
01/01/2012 19:25 11,2 C 93 % 1015,7 hPa 0,0 mm 11,9 km/h (2 Bft) S-SO 202 0 min 0 W/m 10,1 C 11,2 C 14,0 km/h (3 Bft)
01/01/2012 19:30 11,2 C 93 % 1015,6 hPa 0,0 mm 8,3 km/h (2 Bft) S-SO 202 0 min 0 W/m 10,1 C 11,2 C 10,1 km/h (2 Bft)
01/01/2012 19:35 11,1 C 93 % 1015,5 hPa 0,0 mm 7,9 km/h (2 Bft) SO 225 0 min 0 W/m 10,0 C 11,1 C 12,2 km/h (2 Bft)
01/01/2012 19:40 11,1 C 93 % 1015,5 hPa 0,0 mm 12,6 km/h (3 Bft) S-SO 202 0 min 0 W/m 10,0 C 11,1 C 12,6 km/h (3 Bft)
01/01/2012 19:45 11,1 C 93 % 1015,5 hPa 0,0 mm 10,8 km/h (2 Bft) S-SO 202 0 min 0 W/m 10,0 C 11,1 C 13,3 km/h (3 Bft)
01/01/2012 19:50 11,1 C 93 % 1015,4 hPa 0,0 mm 8,6 km/h (2 Bft) SO 225 0 min 0 W/m 10,0 C 11,1 C 14,0 km/h (3 Bft)
01/01/2012 19:55 11,1 C 93 % 1015,5 hPa 0,0 mm 10,1 km/h (2 Bft) O-SO 247 0 min 0 W/m 10,0 C 11,1 C 11,9 km/h (2 Bft)
01/01/2012 20:00 11,1 C 93 % 1015,5 hPa 0,0 mm 12,2 km/h (2 Bft) S-SO 202 0 min 0 W/m 10,0 C 11,1 C 13,7 km/h (3 Bft)
01/01/2012 20:05 11,1 C 93 % 1015,4 hPa 0,0 mm 10,8 km/h (2 Bft) S-SO 202 0 min 0 W/m 10,0 C 11,1 C 17,6 km/h (3 Bft)
01/01/2012 20:10 11,1 C 93 % 1015,4 hPa 0,0 mm 10,4 km/h (2 Bft) S 180 0 min 0 W/m 10,0 C 11,1 C 11,9 km/h (2 Bft)
01/01/2012 20:15 11,1 C 93 % 1015,4 hPa 0,0 mm 7,9 km/h (2 Bft) SO 225 0 min 0 W/m 10,0 C 11,1 C 13,7 km/h (3 Bft)
01/01/2012 20:20 11,1 C 93 % 1015,3 hPa 0,0 mm 9,0 km/h (2 Bft) SO 225 0 min 0 W/m 10,0 C 11,1 C 15,8 km/h (3 Bft)
01/01/2012 20:25 11,2 C 93 % 1015,3 hPa 0,0 mm 8,3 km/h (2 Bft) S-SO 202 0 min 0 W/m 10,1 C 11,2 C 15,8 km/h (3 Bft)
01/01/2012 20:30 11,2 C 93 % 1015,3 hPa 0,0 mm 9,4 km/h (2 Bft) S-SO 202 0 min 0 W/m 10,1 C 11,2 C 11,2 km/h (2 Bft)
01/01/2012 20:35 11,2 C 93 % 1015,2 hPa 0,0 mm 9,4 km/h (2 Bft) SO 225 0 min 0 W/m 10,1 C 11,2 C 13,7 km/h (3 Bft)
01/01/2012 20:40 11,2 C 93 % 1015,1 hPa 0,0 mm 15,8 km/h (3 Bft) SO 225 0 min 0 W/m 10,1 C 11,2 C 25,6 km/h (4 Bft)
01/01/2012 20:45 11,2 C 92 % 1015,0 hPa 0,0 mm 10,4 km/h (2 Bft) S-SO 202 0 min 0 W/m 9,9 C 11,2 C 10,4 km/h (2 Bft)
01/01/2012 20:50 11,2 C 92 % 1015,0 hPa 0,0 mm 7,6 km/h (2 Bft) SO 225 0 min 0 W/m 9,9 C 11,2 C 9,7 km/h (2 Bft)
01/01/2012 20:55 11,3 C 92 % 1014,9 hPa 0,0 mm 6,1 km/h (2 Bft) S-SO 202 0 min 0 W/m 10,0 C 11,3 C 8,6 km/h (2 Bft)
01/01/2012 21:00 11,2 C 92 % 1014,8 hPa 0,0 mm 13,7 km/h (3 Bft) S 180 0 min 0 W/m 9,9 C 11,2 C 13,7 km/h (3 Bft)
01/01/2012 21:05 11,3 C 92 % 1014,7 hPa 0,0 mm 11,9 km/h (2 Bft) S 180 0 min 0 W/m 10,0 C 11,3 C 16,2 km/h (3 Bft)
01/01/2012 21:10 11,3 C 91 % 1014,7 hPa 0,0 mm 9,0 km/h (2 Bft) SO 225 0 min 0 W/m 9,9 C 11,3 C 13,7 km/h (3 Bft)
01/01/2012 21:15 11,3 C 91 % 1014,7 hPa 0,0 mm 9,4 km/h (2 Bft) S-SO 202 0 min 0 W/m 9,9 C 11,3 C 9,4 km/h (2 Bft)
01/01/2012 21:20 11,3 C 91 % 1014,5 hPa 0,0 mm 12,2 km/h (2 Bft) S 180 0 min 0 W/m 9,9 C 11,3 C 12,2 km/h (2 Bft)
01/01/2012 21:25 11,3 C 91 % 1014,5 hPa 0,0 mm 7,9 km/h (2 Bft) S-SO 202 0 min 0 W/m 9,9 C 11,3 C 10,8 km/h (2 Bft)
01/01/2012 21:30 11,2 C 91 % 1014,5 hPa 0,0 mm 11,5 km/h (2 Bft) S-SO 202 0 min 0 W/m 9,8 C 11,2 C 13,3 km/h (3 Bft)
01/01/2012 21:35 11,2 C 91 % 1014,5 hPa 0,0 mm 7,9 km/h (2 Bft) S-SO 202 0 min 0 W/m 9,8 C 11,2 C 13,0 km/h (3 Bft)
01/01/2012 21:40 11,2 C 91 % 1014,5 hPa 0,0 mm 11,5 km/h (2 Bft) S-SO 202 0 min 0 W/m 9,8 C 11,2 C 12,2 km/h (2 Bft)
01/01/2012 21:45 11,2 C 91 % 1014,4 hPa 0,0 mm 8,6 km/h (2 Bft) S 180 0 min 0 W/m 9,8 C 11,2 C 13,0 km/h (3 Bft)
01/01/2012 21:50 11,2 C 91 % 1014,5 hPa 0,0 mm 11,5 km/h (2 Bft) S-SO 202 0 min 0 W/m 9,8 C 11,2 C 15,8 km/h (3 Bft)
01/01/2012 21:55 11,1 C 92 % 1014,5 hPa 0,0 mm 10,1 km/h (2 Bft) S-SO 202 0 min 0 W/m 9,8 C 11,1 C 16,9 km/h (3 Bft)
01/01/2012 22:00 11,2 C 92 % 1014,5 hPa 0,0 mm 7,6 km/h (2 Bft) S-SO 202 0 min 0 W/m 9,9 C 11,2 C 10,4 km/h (2 Bft)
01/01/2012 22:05 11,2 C 92 % 1014,5 hPa 0,0 mm 11,9 km/h (2 Bft) S 180 0 min 0 W/m 9,9 C 11,2 C 15,5 km/h (3 Bft)
01/01/2012 22:10 11,2 C 92 % 1014,5 hPa 0,0 mm 16,6 km/h (3 Bft) S-SO 202 0 min 0 W/m 9,9 C 11,2 C 20,2 km/h (4 Bft)
01/01/2012 22:15 11,2 C 92 % 1014,5 hPa 0,0 mm 11,5 km/h (2 Bft) S 180 0 min 0 W/m 9,9 C 11,2 C 14,0 km/h (3 Bft)
01/01/2012 22:20 11,2 C 92 % 1014,4 hPa 0,0 mm 11,2 km/h (2 Bft) S 180 0 min 0 W/m 9,9 C 11,2 C 18,4 km/h (3 Bft)
01/01/2012 22:25 11,2 C 92 % 1014,4 hPa 0,0 mm 10,4 km/h (2 Bft) S-SO 202 0 min 0 W/m 9,9 C 11,2 C 14,8 km/h (3 Bft)
01/01/2012 22:30 11,3 C 92 % 1014,3 hPa 0,0 mm 9,7 km/h (2 Bft) SO 225 0 min 0 W/m 10,0 C 11,3 C 14,0 km/h (3 Bft)
01/01/2012 22:40 11,3 C 92 % 1014,2 hPa 0,0 mm 6,5 km/h (2 Bft) S-SO 202 0 min 0 W/m 10,0 C 11,3 C 6,5 km/h (2 Bft)
01/01/2012 22:50 11,3 C 92 % 1014,1 hPa 0,0 mm 12,2 km/h (2 Bft) S-SO 202 0 min 0 W/m 10,0 C 11,3 C 23,0 km/h (4 Bft)
01/01/2012 23:00 11,3 C 92 % 1014,0 hPa 0,0 mm 14,8 km/h (3 Bft) SO 225 0 min 0 W/m 10,0 C 11,3 C 21,6 km/h (4 Bft)
01/01/2012 23:10 11,3 C 92 % 1013,9 hPa 0,0 mm 7,6 km/h (2 Bft) S-SO 202 0 min 0 W/m 10,0 C 11,3 C 9,7 km/h (2 Bft)
_ Min-Heure 21:55 21:50 23:10 - 05:00 - - - - 21:50 21:55 06:05
Minimum _ 11,1 C 91 % 1013,9 hPa - 0,4 km/h (0 Bft) - - - - 9,8 C 11,1 C 2,2 km/h (1 Bft)
_ Max-Heure 14:00 14:15 01:00 15:40 17:20 - - 23:10 23:10 14:00 14:00 20:40
Maximum _ 12,2 C 96 % 1021,0 hPa 0,1 mm 16,9 km/h
S-SE (3 Bft)
- - 0 min 0 W/m 11,6 C 12,2 C 25,6 km/h
SO (4 Bft)
Moyenne _ 11,6 C 95 % 1018,4 hPa #1,2 mm 8,2 km/h (2 Bft) SO - #0 min. 0 W/m 10,8 C 11,6 C 11,5 km/h (2 Bft)
Saint Bonnet de Bellac- Haute Vienne - France